Theta_e
322 324 327 322 306 305 299 300 305 304 304 306 308 309 308 309 305 302 321 331 332 333 337 345 348 351 351 350 350 350 349 348 348 348 347 346 342 340 340 342 342 343 342 339 337 335 334 333 329
322 321 323 316 301 296 298 302 303 306 306 307 308 308 307 306 312 315 323 330 332 333 336 339 345 350 351 351 350 349 348 348 348 347 345 343 339 337 337 337 339 339 338 337 334 331 329 326 326
318 317 312 307 302 297 297 302 305 305 306 307 307 309 309 309 313 318 326 331 333 334 337 340 344 349 351 351 351 350 350 349 347 346 343 341 338 337 336 336 337 337 336 332 328 326 324 324 323
319 315 311 301 298 301 300 303 305 305 306 307 307 306 310 314 315 319 327 332 333 335 338 342 345 349 350 350 350 350 349 348 347 344 340 340 338 335 334 335 335 334 330 327 324 323 322 321 321
317 311 301 298 298 300 303 305 305 304 305 306 306 306 307 311 316 318 327 330 333 335 340 343 344 347 349 349 350 349 348 348 346 342 339 338 336 333 330 333 330 328 326 324 324 323 321 320 319
309 310 299 297 298 301 304 305 304 304 305 306 305 306 309 312 313 318 326 330 335 335 339 342 338 341 344 346 347 347 347 344 341 340 339 336 334 331 329 329 326 325 324 324 324 321 320 318 316
305 304 298 298 299 301 304 305 304 305 305 306 308 305 310 310 313 319 325 330 334 336 338 340 343 341 335 338 339 339 340 340 339 338 337 335 332 328 327 326 325 324 324 323 321 320 318 316 314
311 307 299 300 299 299 304 304 306 305 306 307 309 306 307 311 314 320 324 328 330 334 336 338 340 342 342 342 332 334 336 336 336 336 333 330 328 327 327 325 325 323 323 321 319 318 316 313 310
308 302 298 299 298 301 305 303 305 306 306 306 308 309 310 311 314 318 321 324 325 327 332 335 336 339 339 339 336 329 330 331 331 331 326 323 326 324 322 322 324 323 320 319 317 316 313 310 307
306 301 300 303 303 302 303 303 305 304 305 306 307 310 309 310 312 315 317 319 322 323 326 329 332 334 336 335 335 336 334 333 331 331 329 327 324 322 320 318 321 321 319 316 314 311 306 300 303
305 300 304 302 303 303 302 303 305 304 302 306 306 309 311 309 310 312 315 318 320 323 324 325 328 331 332 332 332 331 332 331 329 331 328 325 321 319 319 319 319 318 314 313 310 304 301 301 301
301 304 304 304 303 303 302 304 303 304 305 309 310 310 310 308 309 311 312 315 318 320 322 324 326 328 329 331 330 331 329 328 327 327 325 321 318 317 316 316 317 316 313 310 304 302 302 300 300
301 303 304 305 304 304 304 303 303 304 307 309 309 307 307 308 309 311 312 314 316 317 319 321 323 325 326 327 328 328 327 326 327 324 321 319 317 314 314 314 314 313 309 306 301 301 300 299 299
301 301 302 302 302 303 300 302 300 304 307 306 306 306 307 307 308 309 309 310 312 314 316 319 320 322 324 324 325 325 325 325 324 322 319 317 316 313 311 311 310 309 306 302 301 300 300 299 299
301 298 300 301 300 300 301 298 298 304 305 303 304 306 306 306 307 307 309 309 311 313 314 316 317 319 321 322 323 323 323 322 322 319 318 314 313 311 309 308 307 305 302 300 300 299 299 298 297
297 296 293 299 298 299 300 294 302 304 301 302 304 305 305 306 307 308 309 309 310 311 312 314 314 316 318 319 321 320 320 319 318 318 315 312 309 308 307 305 304 301 300 299 298 297 297 297 297
295 291 293 294 298 297 298 295 301 302 302 301 303 304 305 306 307 308 309 309 309 310 310 311 313 313 315 317 319 319 318 317 316 316 313 311 308 306 304 304 302 300 298 298 297 297 297 296 296
293 291 293 291 297 296 294 294 298 301 300 300 301 303 304 304 305 307 308 309 309 309 309 310 310 311 313 314 316 317 316 315 315 314 312 310 307 304 303 303 301 298 297 297 297 296 296 297 296
294 293 292 295 298 295 294 295 297 300 300 300 301 302 303 304 306 306 306 308 308 307 307 307 307 308 309 310 311 312 311 312 311 312 310 308 306 303 302 301 300 298 297 297 296 296 294 294 295
293 292 291 295 297 292 294 293 296 299 299 301 301 302 303 304 305 305 305 306 307 307 306 306 306 306 307 308 310 310 310 311 310 311 308 307 305 304 301 301 300 297 297 296 296 295 294 295 294
293 290 292 291 294 295 292 293 294 300 299 301 302 302 302 302 302 303 304 306 307 306 305 305 305 305 305 306 307 307 308 306 306 307 306 305 304 302 301 301 299 297 297 296 296 295 295 293 293
289 295 292 291 289 288 292 286 295 298 298 300 301 302 300 301 301 301 303 303 303 304 306 304 304 304 304 304 304 304 302 302 303 304 304 304 303 302 301 300 299 298 297 296 296 296 296 297 292
292 292 291 290 289 288 290 286 294 293 295 297 299 299 300 300 301 301 301 301 301 302 302 303 303 303 303 303 302 303 302 303 304 304 302 302 301 301 300 300 299 298 297 297 296 294 295 296 296
293 291 291 289 289 284 291 289 291 294 294 296 298 298 299 300 301 300 299 299 298 300 299 299 299 299 301 301 301 301 301 301 302 302 300 300 300 298 299 299 298 298 297 296 296 295 295 294 296
291 289 285 285 285 285 288 287 291 297 297 297 297 298 298 297 296 295 295 294 294 294 295 296 296 295 297 297 299 299 300 300 300 301 299 299 298 297 297 298 297 297 297 296 295 295 294 294 293
292 291 285 280 282 286 292 286 293 298 299 297 297 294 295 294 294 293 293 292 292 292 293 293 293 293 294 295 295 297 298 298 298 300 299 299 299 298 298 297 297 296 296 295 295 294 294 294 294
290 286 291 285 286 283 288 292 297 296 295 294 294 294 293 293 293 292 293 292 291 291 292 292 291 292 291 292 294 294 295 296 297 298 298 298 299 297 298 297 295 296 295 294 294 293 292 292 292
290 292 285 285 278 278 284 286 287 292 291 292 292 291 291 291 291 291 292 292 291 291 292 292 291 291 290 290 291 292 293 294 295 296 297 296 298 297 296 296 295 295 294 294 293 292 292 291 291
288 286 287 287 285 280 279 284 294 290 289 289 290 289 288 288 288 288 290 291 291 291 291 291 291 290 290 289 290 291 292 292 292 292 293 295 296 296 295 294 294 293 293 292 291 291 291 289 290
293 290 290 283 282 284 283 284 297 293 289 288 287 286 286 286 286 287 288 289 289 289 289 289 290 290 289 289 289 289 290 290 290 291 291 293 293 294 293 293 292 292 291 291 289 289 289 288 288
Wind_Speed
1 2 2 4 5 4 3 1 2 4 3 1 3 4 3 5 4 6 2 8 5 14 14 15 12 14 15 13 11 11 12 11 12 12 11 11 9 6 6 7 6 8 10 10 8 6 7 6 5
2 2 2 1 4 4 4 0 3 1 0 2 4 5 6 6 3 2 3 11 8 13 13 14 11 11 14 14 13 13 12 12 12 12 10 10 7 6 6 5 5 5 8 8 7 7 7 5 5
0 3 3 2 2 3 3 3 1 0 2 5 4 3 3 2 2 1 1 14 11 13 12 12 12 12 12 14 13 13 13 13 13 12 9 9 7 5 6 6 6 7 7 7 7 7 7 6 6
2 3 3 5 6 7 5 5 5 8 2 4 3 6 3 3 1 2 4 13 11 13 12 9 11 12 12 12 12 12 11 12 14 13 8 8 8 7 6 6 7 8 8 7 8 8 7 6 7
1 2 3 3 5 5 7 8 6 4 2 3 4 2 4 3 3 2 7 11 13 14 12 11 9 11 12 13 14 13 14 14 11 9 10 8 7 7 7 7 8 8 8 8 9 9 8 8 8
2 2 4 5 3 4 6 4 5 5 3 3 5 6 3 3 4 5 6 11 12 15 13 12 10 9 9 10 13 14 14 11 8 9 10 9 9 9 9 8 8 8 9 10 9 9 9 8 9
2 2 3 4 6 5 2 1 3 3 3 5 1 5 1 5 4 5 7 10 11 13 12 12 13 11 9 9 9 10 8 8 10 8 9 9 10 10 10 9 9 9 10 9 9 9 9 9 9
1 2 3 5 3 5 3 3 2 5 3 2 2 6 3 4 5 5 6 10 11 12 13 14 13 13 13 12 8 9 9 9 10 9 9 9 8 7 7 7 9 11 11 10 10 9 9 9 9
2 4 6 5 6 2 4 5 4 3 8 5 8 6 2 7 6 7 8 10 11 12 14 14 15 14 14 14 12 8 8 10 10 9 9 9 9 10 10 7 9 11 10 10 11 10 10 10 9
5 5 6 4 5 5 3 5 7 6 12 15 13 14 7 6 8 11 12 14 17 17 17 15 16 16 15 11 13 13 12 8 8 11 12 10 10 9 8 8 8 10 10 10 10 9 8 4 4
4 7 6 7 12 7 6 8 6 10 14 17 15 10 9 12 12 14 16 17 18 17 15 18 16 16 15 12 10 8 8 7 7 14 12 11 8 7 7 7 7 8 8 7 8 6 4 4 3
7 12 11 4 3 4 7 6 10 13 24 22 18 16 13 13 14 16 17 17 16 16 18 18 19 17 17 11 11 11 10 10 9 12 15 10 8 9 8 7 8 7 7 7 6 4 4 4 4
9 11 10 9 8 10 11 20 18 19 24 23 20 15 17 17 17 16 16 14 14 16 17 18 19 18 16 17 12 12 12 11 13 12 14 12 11 11 10 9 8 8 7 7 6 5 5 4 3
3 8 13 10 13 11 10 25 2 14 14 15 13 16 15 15 16 14 14 15 16 16 18 17 19 19 18 17 18 13 12 13 13 12 13 16 11 11 11 10 10 9 8 7 6 6 6 5 5
5 12 15 14 7 9 9 14 16 21 13 16 15 14 13 13 12 15 14 14 15 16 16 19 20 20 21 21 18 13 13 14 13 13 15 15 14 13 12 10 10 9 8 9 7 6 5 5 4
6 4 10 3 7 3 10 17 20 6 6 13 19 20 20 22 20 17 16 14 13 14 17 16 14 18 21 19 15 13 12 12 12 12 13 18 17 16 14 11 10 9 8 8 8 7 6 5 5
6 11 13 11 5 3 11 12 13 8 12 25 25 23 22 21 16 15 11 13 12 13 13 15 16 19 20 18 14 15 16 13 13 13 13 18 18 17 13 11 11 12 9 9 8 8 8 7 5
12 10 10 10 7 8 13 20 21 25 21 25 26 25 18 17 17 13 10 10 10 9 10 12 11 15 16 12 13 12 12 13 13 13 13 17 14 18 15 11 12 12 10 10 9 9 7 7 7
14 16 21 21 19 19 21 20 21 23 23 27 25 22 14 12 10 7 7 7 4 5 7 10 11 13 11 11 11 12 12 11 12 12 18 18 17 19 16 12 14 13 12 12 13 9 11 6 8
16 19 21 19 15 6 18 24 23 23 22 22 22 18 14 13 9 7 7 6 7 7 6 6 8 9 10 9 9 11 9 12 12 11 14 18 20 19 18 17 15 16 12 15 15 14 10 6 11
15 14 18 22 19 15 12 13 3 11 7 15 5 12 10 7 6 10 12 12 12 15 14 9 5 7 9 11 9 9 9 8 10 13 12 14 18 18 18 18 14 15 13 13 15 15 15 10 10
15 10 15 15 7 9 9 13 10 11 12 11 8 10 12 12 10 9 13 15 14 12 11 12 11 6 6 10 11 14 12 12 10 10 11 12 18 19 18 18 18 16 13 14 14 13 13 11 11
5 2 3 5 9 10 6 9 2 3 5 7 13 12 11 10 9 15 14 13 15 15 15 15 15 12 8 7 12 10 13 11 9 9 12 15 14 18 17 17 18 17 14 16 16 16 17 13 12
1 4 5 2 4 10 9 10 3 2 3 4 2 8 10 12 17 18 17 16 17 18 18 16 17 15 12 7 10 13 15 13 11 10 10 10 11 12 17 18 18 18 16 17 16 16 18 15 12
3 5 8 7 5 10 4 5 6 9 6 5 3 12 19 18 18 18 19 18 20 21 19 16 18 18 16 12 10 10 13 15 15 15 11 12 10 10 15 18 17 15 17 17 16 17 17 17 14
10 11 8 7 10 16 10 11 5 7 3 12 19 18 19 21 18 19 20 19 20 18 19 18 18 18 18 17 15 11 10 9 11 12 11 10 11 11 16 17 18 19 18 16 16 14 14 16 15
5 9 3 2 3 8 12 19 15 5 10 15 16 17 18 17 18 19 18 17 19 19 19 18 17 16 17 18 16 16 12 12 11 14 13 10 12 10 13 15 17 19 19 19 18 14 16 15 16
8 3 3 3 6 10 14 21 14 11 8 8 11 13 14 16 18 17 16 17 16 15 14 16 17 16 16 16 16 15 17 16 14 12 14 14 13 14 12 14 16 19 19 19 19 16 16 17 14
5 6 6 4 6 7 13 16 3 10 7 6 8 9 11 12 12 12 13 13 14 14 15 15 16 17 17 18 17 16 16 18 15 13 13 14 14 14 14 14 15 18 18 19 19 19 18 18 18
6 11 14 9 9 10 14 19 17 9 10 7 5 4 5 6 8 10 11 12 13 14 14 15 16 16 16 15 14 13 13 15 16 16 16 13 13 13 14 14 15 16 17 18 20 20 18 19 20
Wind_Direction
207 333 282 240 249 254 254 177 308 250 226 176 155 234 301 315 281 332 97 188 185 171 171 175 184 176 174 174 165 159 162 169 169 150 141 127 119 136 131 120 109 108 106 100 98 99 98 90 76
2 261 229 249 259 271 74 132 222 358 33 204 219 220 244 274 260 265 217 178 186 173 174 179 177 182 178 175 171 167 177 183 167 149 151 127 148 165 164 161 171 115 102 101 101 91 88 82 79
219 332 267 288 263 305 339 194 156 340 250 220 239 261 296 234 190 297 58 163 175 176 180 184 174 185 190 176 177 180 186 177 161 153 153 130 146 165 165 167 171 151 121 108 105 103 90 86 81
272 176 139 259 270 272 266 303 288 296 205 217 276 257 224 280 233 93 144 165 177 179 182 166 190 186 176 173 177 179 178 167 162 171 131 155 161 173 171 168 142 125 128 126 120 109 105 96 89
37 233 236 259 268 277 262 288 286 274 295 198 197 254 252 176 156 151 170 177 183 179 184 181 184 197 189 182 181 183 181 178 165 136 153 160 161 180 178 153 145 142 139 136 127 123 115 100 88
176 288 253 282 289 276 278 272 277 252 243 187 223 257 251 104 197 178 179 186 187 183 182 186 178 171 168 182 179 176 187 185 148 161 167 169 183 184 184 168 162 153 149 141 129 124 115 107 100
261 242 294 285 288 283 249 164 232 279 248 230 276 258 256 206 177 166 182 185 190 187 189 191 190 184 175 175 175 175 177 174 186 178 174 180 187 187 184 175 169 162 155 144 136 128 119 112 105
145 247 222 219 246 275 198 214 241 252 302 90 232 235 255 108 142 152 174 188 194 195 198 198 198 198 197 194 188 182 180 182 162 181 174 166 167 181 171 170 178 168 157 151 142 136 128 122 114
192 224 244 243 195 213 179 242 170 296 271 223 205 250 358 125 150 167 174 194 202 207 207 204 204 205 208 207 200 193 196 168 164 171 161 160 196 188 173 186 168 167 162 157 148 143 132 117 102
225 235 248 236 223 249 251 245 290 254 258 255 247 243 220 182 192 203 202 204 207 208 206 207 207 206 207 207 208 210 209 199 189 197 192 197 197 191 192 178 185 160 163 159 151 141 133 175 141
181 243 243 231 243 260 274 263 249 263 271 261 270 276 234 220 223 227 227 222 213 213 208 208 206 207 206 205 206 203 204 197 198 204 197 195 192 182 189 182 180 173 169 168 161 156 184 160 156
244 242 245 271 221 249 265 294 255 242 259 275 285 285 277 240 233 232 235 231 226 215 213 206 207 204 205 205 206 204 203 196 198 201 195 188 190 192 191 194 187 184 185 175 179 176 160 151 130
238 260 259 257 264 264 278 264 266 262 262 276 279 273 270 263 258 249 249 247 239 228 220 213 207 207 205 205 203 209 208 202 203 201 195 195 194 192 189 193 190 190 186 186 185 173 163 151 140
348 282 284 276 254 242 245 271 260 264 261 277 272 274 271 267 264 267 250 246 235 232 227 215 211 211 207 208 210 205 205 203 205 204 201 201 198 195 192 190 191 190 191 186 187 176 170 168 160
303 297 294 261 263 232 215 268 233 260 282 282 285 280 278 261 259 251 253 242 236 234 232 219 212 210 211 211 212 208 205 202 201 205 202 198 199 198 195 193 194 192 187 183 180 172 172 169 166
275 255 285 300 179 166 203 270 285 309 295 288 293 290 284 277 274 273 273 265 252 238 225 223 216 213 213 213 213 210 211 213 210 206 199 198 198 197 194 193 196 188 183 185 180 177 177 179 182
226 269 256 292 228 129 207 278 276 268 295 287 286 282 279 285 294 283 279 274 264 248 240 230 218 218 219 223 219 214 212 212 212 208 205 201 200 197 198 198 192 181 185 189 185 181 183 178 176
273 256 251 260 284 247 270 269 282 287 284 279 279 277 284 292 291 303 297 283 275 253 244 234 225 227 225 223 221 222 221 217 216 211 210 203 201 196 196 195 191 185 185 188 191 186 185 182 166
287 274 279 276 283 297 289 293 291 284 281 273 276 280 295 290 312 348 326 312 307 281 255 236 226 222 215 214 220 227 232 232 230 218 211 204 202 200 200 196 191 186 190 190 185 175 176 176 165
262 271 275 280 277 287 294 300 285 283 269 277 278 294 295 307 4 26 15 30 19 346 315 282 257 247 228 224 219 223 218 230 231 232 227 216 206 200 196 194 190 189 185 188 187 180 174 174 184
253 266 278 283 305 283 304 278 271 282 287 269 304 281 321 339 43 62 50 34 24 17 8 353 307 261 240 231 232 232 246 246 230 220 218 219 216 209 204 202 198 191 192 190 184 188 182 175 188
280 289 274 282 292 289 3 296 308 293 283 319 320 30 46 59 68 71 44 31 26 20 11 3 9 334 265 237 235 232 234 242 236 236 233 225 220 215 207 203 198 195 193 194 192 188 190 183 181
261 8 276 273 267 300 243 268 32 299 290 69 46 72 47 48 47 39 39 34 29 29 23 16 8 3 333 259 244 246 245 254 255 242 234 220 218 223 215 209 206 202 201 204 197 191 193 189 185
93 274 252 214 266 258 260 226 133 113 108 48 79 55 59 40 34 33 33 30 35 35 26 19 13 12 357 309 269 258 260 263 258 244 245 233 220 217 216 212 210 207 204 204 201 200 199 198 201
224 308 320 277 222 275 97 272 282 295 220 295 38 72 47 41 33 31 29 27 24 27 24 20 19 19 10 352 313 287 279 274 266 262 245 234 221 215 213 214 215 215 211 205 201 200 202 203 205
238 233 206 278 275 292 307 257 291 238 336 44 45 42 35 33 31 24 20 19 23 19 19 20 19 14 13 8 352 331 310 288 276 267 262 246 230 222 215 212 215 216 215 214 206 204 205 204 206
159 208 206 203 319 275 253 267 287 336 78 45 40 34 30 25 23 17 13 15 11 11 7 10 14 16 14 6 360 358 338 305 293 286 271 260 246 234 224 215 215 217 216 211 207 209 205 204 204
216 116 196 119 224 236 267 288 282 251 72 45 27 27 18 13 11 10 8 2 3 2 359 6 11 11 9 7 4 2 352 338 320 302 282 269 263 246 229 220 215 217 216 213 211 210 207 203 203
208 221 223 300 207 249 279 278 40 97 88 47 38 27 18 21 18 11 2 356 354 355 358 359 2 2 3 3 3 1 355 353 342 320 299 278 270 256 240 229 220 220 217 214 214 213 208 209 208
282 260 244 239 246 231 240 250 255 107 107 54 68 81 40 20 8 360 356 350 353 356 355 356 354 354 356 354 352 352 351 350 347 344 327 303 278 266 250 238 227 225 219 215 216 214 210 205 209